• In Belarus
  • List of Countries
  • For 7 days
  • Water Temperature
  • Satellite Maps
  • Weather Map
  • Weather Widgets
  • user-avatar
    Login

    Hourly Weather Wafra

    Today, 19 May, Sunday

    Time Temperature Precipitation Wind Pressure Humidity
    00:00 +31°C° 0 mm 3 mps 740 mmHg 48%
    01:00 +31°C° 0 mm 2 mps 740 mmHg 50%
    02:00 +30°C° 0 mm 2 mps 740 mmHg 51%
    03:00 +30°C° 0 mm 4 mps 740 mmHg 57%
    04:00 +30°C° 0 mm 4 mps 740 mmHg 59%
    05:00 +30°C° 0 mm 4 mps 740 mmHg 61%
    06:00 +29°C° 0 mm 4 mps 740 mmHg 64%
    07:00 +33°C° 0 mm 4 mps 740 mmHg 51%
    08:00 +35°C° 0 mm 4 mps 741 mmHg 38%
    09:00 +37°C° 0 mm 4 mps 741 mmHg 25%
    10:00 +40°C° 0 mm 5 mps 741 mmHg 21%
    11:00 +41°C° 0 mm 6 mps 741 mmHg 18%
    12:00 +43°C° 0 mm 7 mps 741 mmHg 15%
    13:00 +43°C° 0 mm 7 mps 741 mmHg 16%
    14:00 +43°C° 0 mm 8 mps 741 mmHg 17%
    15:00 +41°C° 0 mm 8 mps 740 mmHg 18%
    16:00 +40°C° 0 mm 8 mps 740 mmHg 22%
    17:00 +38°C° 0 mm 8 mps 740 mmHg 26%
    18:00 +37°C° 0 mm 8 mps 740 mmHg 30%
    19:00 +35°C° 0 mm 8 mps 741 mmHg 32%
    20:00 +34°C° 0 mm 7 mps 741 mmHg 34%
    21:00 +34°C° 0 mm 6 mps 741 mmHg 36%
    22:00 +33°C° 0 mm 5 mps 741 mmHg 38%
    23:00 +33°C° 0 mm 5 mps 741 mmHg 40%

    Tomorrow, 20 May, Monday

    Time Temperature Precipitation Wind Pressure Humidity
    00:00 +32°C° 0 mm 4 mps 741 mmHg 41%
    01:00 +32°C° 0 mm 4 mps 741 mmHg 43%
    02:00 +30°C° 0 mm 3 mps 741 mmHg 45%
    03:00 +30°C° 0 mm 3 mps 741 mmHg 47%
    04:00 +30°C° 0 mm 3 mps 741 mmHg 45%
    05:00 +30°C° 0 mm 3 mps 742 mmHg 44%
    06:00 +30°C° 0 mm 3 mps 742 mmHg 43%
    07:00 +33°C° 0 mm 3 mps 742 mmHg 37%
    08:00 +35°C° 0 mm 3 mps 742 mmHg 31%
    09:00 +37°C° 0 mm 4 mps 743 mmHg 25%
    10:00 +38°C° 0 mm 4 mps 743 mmHg 22%
    11:00 +39°C° 0 mm 3 mps 743 mmHg 19%
    12:00 +42°C° 0 mm 3 mps 742 mmHg 16%
    13:00 +42°C° 0 mm 4 mps 742 mmHg 17%
    14:00 +42°C° 0 mm 5 mps 742 mmHg 18%
    15:00 +42°C° 0 mm 6 mps 741 mmHg 19%
    16:00 +40°C° 0 mm 6 mps 741 mmHg 22%
    17:00 +39°C° 0 mm 6 mps 741 mmHg 25%
    18:00 +37°C° 0 mm 5 mps 741 mmHg 29%
    19:00 +36°C° 0 mm 5 mps 741 mmHg 31%
    20:00 +35°C° 0 mm 5 mps 741 mmHg 34%
    21:00 +34°C° 0 mm 5 mps 742 mmHg 37%
    22:00 +33°C° 0 mm 4 mps 742 mmHg 37%
    23:00 +33°C° 0 mm 4 mps 742 mmHg 37%

    Day after tomorrow, 21 May, Tuesday

    Time Temperature Precipitation Wind Pressure Humidity
    00:00 +33°C° 0 mm 4 mps 742 mmHg 36%
    01:00 +33°C° 0 mm 4 mps 742 mmHg 35%
    02:00 +33°C° 0 mm 4 mps 742 mmHg 33%
    03:00 +33°C° 0 mm 4 mps 742 mmHg 31%
    04:00 +34°C° 0 mm 4 mps 742 mmHg 30%
    05:00 +34°C° 0 mm 5 mps 742 mmHg 29%
    06:00 +34°C° 0 mm 5 mps 742 mmHg 28%
    07:00 +36°C° 0 mm 4 mps 743 mmHg 25%
    08:00 +37°C° 0 mm 4 mps 743 mmHg 23%
    09:00 +39°C° 0 mm 3 mps 743 mmHg 21%
    10:00 +40°C° 0 mm 3 mps 743 mmHg 19%
    11:00 +42°C° 0 mm 3 mps 743 mmHg 16%
    12:00 +42°C° 0 mm 2 mps 743 mmHg 14%
    13:00 +43°C° 0 mm 3 mps 743 mmHg 14%
    14:00 +44°C° 0 mm 3 mps 742 mmHg 13%
    15:00 +44°C° 0 mm 3 mps 742 mmHg 12%
    16:00 +43°C° 0 mm 3 mps 742 mmHg 14%
    17:00 +42°C° 0 mm 3 mps 742 mmHg 15%
    18:00 +42°C° 0 mm 3 mps 742 mmHg 17%
    19:00 +40°C° 0 mm 3 mps 742 mmHg 19%
    20:00 +39°C° 0 mm 2 mps 743 mmHg 21%
    21:00 +38°C° 0 mm 2 mps 743 mmHg 23%
    22:00 +37°C° 0 mm 2 mps 743 mmHg 23%
    23:00 +36°C° 0 mm 2 mps 743 mmHg 23%

    22 May, Wednesday

    Time Temperature Precipitation Wind Pressure Humidity
    00:00 +36°C° 0 mm 2 mps 743 mmHg 23%
    01:00 +36°C° 0 mm 2 mps 743 mmHg 20%
    02:00 +35°C° 0 mm 3 mps 743 mmHg 18%
    03:00 +35°C° 0 mm 3 mps 743 mmHg 15%
    04:00 +34°C° 0 mm 3 mps 743 mmHg 15%
    05:00 +34°C° 0 mm 3 mps 743 mmHg 15%
    06:00 +34°C° 0 mm 3 mps 744 mmHg 14%
    07:00 +36°C° 0 mm 4 mps 744 mmHg 14%
    08:00 +37°C° 0 mm 4 mps 744 mmHg 13%
    09:00 +40°C° 0 mm 4 mps 745 mmHg 12%
    10:00 +41°C° 0 mm 4 mps 745 mmHg 11%
    11:00 +42°C° 0 mm 5 mps 744 mmHg 10%
    12:00 +43°C° 0 mm 5 mps 744 mmHg 9%
    13:00 +43°C° 0 mm 5 mps 744 mmHg 9%
    14:00 +45°C° 0 mm 6 mps 743 mmHg 9%
    15:00 +45°C° 0 mm 6 mps 743 mmHg 9%
    16:00 +45°C° 0 mm 6 mps 742 mmHg 9%
    17:00 +43°C° 0 mm 5 mps 742 mmHg 9%
    18:00 +43°C° 0 mm 5 mps 742 mmHg 10%
    19:00 +40°C° 0 mm 3 mps 742 mmHg 11%
    20:00 +39°C° 0 mm 2 mps 742 mmHg 12%
    21:00 +37°C° 0 mm 1 mps 743 mmHg 13%
    22:00 +36°C° 0 mm 1 mps 742 mmHg 14%
    23:00 +37°C° 0 mm 2 mps 742 mmHg 14%

    23 May, Thursday

    Time Temperature Precipitation Wind Pressure Humidity
    00:00 +36°C° 0 mm 2 mps 742 mmHg 14%
    01:00 +36°C° 0 mm 3 mps 742 mmHg 14%
    02:00 +36°C° 0 mm 3 mps 742 mmHg 14%
    03:00 +35°C° 0 mm 4 mps 742 mmHg 15%
    04:00 +35°C° 0 mm 4 mps 742 mmHg 16%
    05:00 +35°C° 0 mm 4 mps 742 mmHg 16%
    06:00 +35°C° 0 mm 4 mps 742 mmHg 17%
    07:00 +37°C° 0 mm 5 mps 743 mmHg 16%
    08:00 +40°C° 0 mm 6 mps 743 mmHg 14%
    09:00 +43°C° 0 mm 7 mps 743 mmHg 12%
    10:00 +44°C° 0 mm 7 mps 743 mmHg 11%
    11:00 +45°C° 0 mm 8 mps 743 mmHg 10%
    12:00 +46°C° 0 mm 8 mps 742 mmHg 9%
    13:00 +46°C° 0 mm 8 mps 742 mmHg 9%
    14:00 +47°C° 0 mm 9 mps 741 mmHg 8%
    15:00 +48°C° 0 mm 9 mps 741 mmHg 8%
    16:00 +46°C° 0 mm 8 mps 741 mmHg 8%
    17:00 +45°C° 0 mm 8 mps 741 mmHg 8%
    18:00 +45°C° 0 mm 7 mps 741 mmHg 8%
    19:00 +44°C° 0 mm 6 mps 741 mmHg 9%
    20:00 +41°C° 0 mm 5 mps 742 mmHg 9%
    21:00 +40°C° 0 mm 4 mps 742 mmHg 10%
    22:00 +40°C° 0 mm 4 mps 742 mmHg 11%
    23:00 +38°C° 0 mm 4 mps 742 mmHg 11%

    24 May, Friday

    Time Temperature Precipitation Wind Pressure Humidity
    00:00 +37°C° 0 mm 4 mps 742 mmHg 12%
    01:00 +37°C° 0 mm 4 mps 741 mmHg 12%
    02:00 +36°C° 0 mm 4 mps 741 mmHg 13%
    03:00 +35°C° 0 mm 4 mps 741 mmHg 13%
    04:00 +35°C° 0 mm 4 mps 742 mmHg 14%
    05:00 +35°C° 0 mm 4 mps 742 mmHg 14%
    06:00 +35°C° 0 mm 5 mps 742 mmHg 15%
    07:00 +37°C° 0 mm 5 mps 743 mmHg 14%
    08:00 +40°C° 0 mm 5 mps 743 mmHg 12%
    09:00 +41°C° 0 mm 6 mps 743 mmHg 11%
    10:00 +42°C° 0 mm 5 mps 743 mmHg 11%
    11:00 +43°C° 0 mm 5 mps 743 mmHg 10%
    12:00 +44°C° 0 mm 4 mps 743 mmHg 9%
    13:00 +45°C° 0 mm 4 mps 742 mmHg 9%
    14:00 +45°C° 0 mm 4 mps 742 mmHg 8%
    15:00 +47°C° 0 mm 4 mps 742 mmHg 8%
    16:00 +45°C° 0 mm 4 mps 742 mmHg 8%
    17:00 +44°C° 0 mm 4 mps 742 mmHg 9%
    18:00 +44°C° 0 mm 3 mps 742 mmHg 9%
    19:00 +43°C° 0 mm 3 mps 742 mmHg 10%
    20:00 +40°C° 0 mm 2 mps 742 mmHg 11%
    21:00 +39°C° 0 mm 2 mps 743 mmHg 12%
    22:00 +38°C° 0 mm 2 mps 742 mmHg 12%
    23:00 +38°C° 0 mm 3 mps 742 mmHg 11%
    Show more